Location: Casa Rossa
(45.2389°N, 12.2056°E)
Time: 22:41:01
(UTC+00:00)

Cosmos 1271 Rocket - Pass Details

Date: 14 July 2020
Orbit: 498 x 546 km, 81.2° (Epoch: 14 August)

Event Time Altitude Azimuth Distance (km) Brightness Sun altitude
Rises 02:41:35 0° 347° (NNW) 2,627 6.7 -8.6°
Reaches altitude 10° 02:43:45 10° 346° (NNW) 1,729 5.8 -8.3°
Maximum altitude 02:47:31 74° 262° (W) 528 2.6 -7.8°
Drops below altitude 10° 02:51:14 10° 177° (S) 1,698 5.0 -7.3°
Sets 02:53:19 0° 175° (S) 2,574 5.9 -7.0°
